Terminal Aerodrome Forecast
Issued by NWS

Home | Current Version | Previous Version | Text Only | Print | Product List | Glossary On
Versions: 1 2 3 4 5 6 7 8 9 10 11 12 13 14 15 16
000
FTUS45 KRIW 241700
TAFWRL
TAF
KWRL 241725Z 2418/2518 22015KT P6SM FEW150
     FM242100 27014G22KT P6SM FEW120
     FM250200 35010KT P6SM FEW120
     FM250700 VRB05KT P6SM SKC=

USA.gov is the U.S. government's official web portal to all federal, state and local government web resources and services.